Location: Hains Lake
(37.8540°N, 99.8578°W)
Time: 05:03:50
(UTC+00:00)

Vanguard 2 Rocket - Pass Details

Date: 26 April 2021
Orbit: 553 x 3326 km, 32.9° (Epoch: 07 May)

Event Time Altitude Azimuth Distance (km) Brightness Sun altitude
Rises 17:00:49 0° 222° (SW) 4,964 10.7 57.8°
Reaches altitude 10° 17:03:45 10° 216° (SW) 4,296 10.5 58.2°
Maximum altitude 17:15:43 47° 147° (SSE) 3,258 11.8 59.9°
Drops below altitude 10° 17:33:31 10° 82° (E) 6,240 11.5 62.1°
Sets 17:38:50 0° 78° (ENE) 7,318 11.6 62.6°
